Hourly Data Report for April 30, 2021

TORONTO CITY
ONTARIO
Current Station Operator: ECCC - MSC

43°40'00.000" N
79°24'00.000" W
112.50 m
6158355
71508
XTO

Download Data

Hourly Data (April 2021)
Hourly Data Report for April 30, 2021
TIME
LST
Temp Definition
°C
Dew Point Definition
°C
Rel Hum Definition
%
Precip. Amount Definition
mm

Wind Dir Definition
10's deg

Wind Spd Definition
km/h
Visibility Definition
km
Stn Press Definition
kPa
Hmdx Definition


Wind Chill Definition


Weather Definition


00:00 9.3 6.8 85 0.4       98.91     LegendNANA
01:00 8.7 6.1 84 0.0       98.90     LegendNANA
02:00 8.9 5.7 80 0.0       98.88     LegendNANA
03:00 8.9 4.8 75 0.0       98.87     LegendNANA
04:00 8.8 4.8 76 0.0       98.87     LegendNANA
05:00 8.3 4.2 75 0.0       98.87     LegendNANA
06:00 7.5 3.9 78 0.0       98.91     LegendNANA
07:00 7.6 3.9 78 0.0       98.94     LegendNANA
08:00 8.3 3.9 74 0.0       98.95     LegendNANA
09:00 9.3 4.1 70 0.0       99.01     LegendNANA
10:00 8.8 3.2 68 0.0       99.07     LegendNANA
11:00 8.6 2.3 65 0.0       99.14     LegendNANA
12:00 8.7 1.6 61 0.0       99.20     LegendNANA
13:00 9.0 1.0 57 0.0       99.28     LegendNANA
14:00 7.8 0.2 59 0.0       99.38     LegendNANA
15:00 6.1 0.9 69 0.0       99.50     LegendNANA
16:00 7.1 -2.3 51 0.0       99.59     LegendNANA
17:00 7.8 -3.4 45 0.0       99.63     LegendNANA
18:00 7.0 -4.1 45 0.0       99.74     LegendNANA
19:00 6.8 -4.7 44 0.0       99.81     LegendNANA
20:00 6.9 -4.2 45 0.0       99.89     LegendNANA
21:00 7.2 -5.1 41 0.0       99.95     LegendNANA
22:00 6.7 -2.5 52 0.0       99.99     LegendNANA
23:00 6.1 -3.0 52 0.0       100.02     LegendNANA

Notes on Data Quality.

Legend

  • E = Estimated
  • M = Missing
  • NA = Not Available*
  • [empty] = Indicates an unobserved value
Date modified: